Flag Weather past 2 weeks in Utsunomiya, Japan

Now
53 °F

Cool.


Feels Like: 53 °F
Forecast: 40 / 56 °F
Wind: 3 mph from Northeast

Location: Mito

Current Time: Nov 27, 2014 at 7:51:19 PM

Latest Report: Nov 27, 2014 at 7:00 PM


Visibility: N/A

Pressure: 30.24 "Hg

Humidity: 81%

Dew point: 47 °F

Location of UtsunomiyaLocation

Historic Weather in Utsunomiya — Graph

°F

Utsunomiya temperature yesterday

Maximum temperature yesterday: 52 °F (at 7:00 AM)
Minimum temperature yesterday: 43 °F (at 8:00 PM)
Average temperature yesterday: 49 °F

Past Weeks' High & Low Weather Summary

 TemperatureHumidityPressure
High67 °F (Nov 22, 2:00 PM)98% (Nov 12, 9:00 PM)30.36 "Hg (Nov 12, 9:00 PM)
Low34 °F (Nov 16, 6:00 AM)20% (Nov 13, 1:00 PM)29.60 "Hg (Nov 12, 11:00 PM)
Average50 °F72%30.10 "Hg
* Reported Nov 12 6:00 PM — Nov 27 6:00 PM, Utsunomiya, Weather by CustomWeather, © 2014

Note: Actual official high and low records may vary slightly from our data, if they occured in-between our weather recording intervals... More about our weather records

Advertising

Utsunomiya weather history for previous 24 hours

 ConditionsComfort  
Time TempWeatherWind HumidityBarometerVisibility
6:00 PM
Nov 27
55 °FCool.5 mph75%30.22 "HgN/A
5:00 PM57 °FCool.3 mph69%30.19 "HgN/A
4:00 PM59 °FCool.3 mph62%30.16 "HgN/A
3:00 PM61 °FPassing clouds.5 mph59%30.14 "Hg25 mi
2:00 PM61 °FRefreshingly cool.7 mph56%30.12 "HgN/A
1:00 PM60 °FRefreshingly cool.5 mph59%30.11 "HgN/A
11:00 AM58 °FCool.5 mph65%30.12 "HgN/A
10:00 AM54 °FCool.3 mph69%30.13 "HgN/A
9:00 AM53 °FPassing clouds.3 mph74%30.11 "Hg19 mi
8:00 AM49 °FCool.3 mph80%30.09 "HgN/A
7:00 AM46 °FCool.3 mph85%30.07 "HgN/A
6:00 AM46 °FCool.3 mph85%30.04 "HgN/A
5:00 AM46 °FCool.3 mph83%30.01 "HgN/A
4:00 AM47 °FCool.5 mph81%29.99 "HgN/A
3:00 AM46 °FOvercast.5 mph86%29.97 "Hg12 mi
2:00 AM46 °FCool.5 mph84%29.96 "HgN/A
1:00 AM45 °FCool.8 mph84%29.95 "HgN/A
12:00 AM44 °FQuite cool.7 mph87%29.93 "HgN/A
11:00 PM
Nov 26
44 °FQuite cool.6 mph89%29.93 "HgN/A
10:00 PM44 °FQuite cool.8 mph87%29.93 "HgN/A
9:00 PM44 °FSprinkles. Overcast.7 mph89%29.92 "Hg12 mi
8:00 PM43 °FQuite cool.8 mph90%29.92 "HgN/A
7:00 PM44 °FQuite cool.12 mph89%29.91 "HgN/A
Weather by CustomWeather, © 2014

See weather overviewHow to use our weather pages